N1LTP Weather Reports


time (UTC)temp
C
wind
direction
speed
KPH
gust
KPH
rain 1hr
cm
rain 24hr
cm
rain mn
cm
humidity
%
barometer
mb
20260503210005 11 308 3.2 22.5 0.00 0.00 0.00 45 1005.9
20260503204505 11 278 9.7 25.7 0.00 0.00 0.00 43 1005.7
20260503203003 11 281 9.7 19.3 0.00 0.00 0.00 45 1005.5
20260503201502 11 333 4.8 24.1 0.00 0.00 0.00 45 1005.5
20260503200059 11 327 6.4 27.4 0.00 0.00 0.00 45 1005.5
20260503194601 11 322 11.3 22.5 0.00 0.00 0.00 44 1005.5
20260503193057 11 325 1.6 17.7 0.00 0.00 0.00 49 1005.4
20260503191556 11 304 6.4 22.5 0.00 0.00 0.00 49 1005.6
20260503190055 11 306 3.2 12.9 0.00 0.00 0.00 51 1005.6
20260503184557 11 292 1.6 8.0 0.00 0.00 0.00 52 1005.5
20260503183052 11 315 1.6 16.1 0.00 0.00 0.00 53 1005.6
20260503181551 10 250 9.7 20.9 0.00 0.00 0.00 51 1005.6
20260503180059 11 316 8.0 20.9 0.00 0.00 0.00 52 1005.6
20260503174551 11 309 6.4 17.7 0.00 0.00 0.00 51 1005.5
20260503173046 10 294 3.2 17.7 0.00 0.00 0.00 58 1005.5
20260503171547 9 298 4.8 17.7 0.00 0.00 0.00 61 1005.7
20260503081538 7 305 3.2 9.7 0.00 0.00 0.00 77 1006.8
20260503071541 7 306 3.2 12.9 0.00 0.00 0.00 73 1007.4
20260503054519 8 292 1.6 6.4 0.00 0.00 0.00 74 1008.5
20260503053018 8 304 1.6 8.0 0.00 0.00 0.00 76 1008.6
20260503051513 8 304 3.2 9.7 0.00 0.00 0.00 78 1008.6
20260503050021 8 281 3.2 14.5 0.00 0.00 0.00 82 1008.7
20260503044509 8 286 1.6 6.4 0.00 0.00 0.00 90 1008.9
20260503043007 8 317 0.0 6.4 0.00 0.00 0.00 91 1009.0
20260503041505 8 312 1.6 4.8 0.00 0.00 0.00 91 1009.3
20260503040003 8 55 0.0 4.8 0.00 0.00 0.00 91 1009.6
20260503034600 8 59 0.0 0.0 0.00 0.00 0.00 91 1009.4
20260503033058 8 59 0.0 3.2 0.00 0.00 0.00 91 1009.5
20260503031606 8 79 0.0 1.6 0.00 0.00 0.00 91 1009.6
20260503030058 8 79 0.0 0.0 0.00 0.00 0.00 90 1009.4
20260503024556 8 79 0.0 0.0 0.00 0.00 0.00 90 1009.6
20260503023055 8 79 0.0 0.0 0.00 0.00 0.00 89 1009.8
20260503021554 9 79 0.0 0.0 0.00 0.00 0.00 89 1009.6
20260503020055 9 79 0.0 0.0 0.00 0.00 0.00 89 1009.8
20260503014608 9 79 0.0 0.0 0.00 0.00 0.00 89 1010.0
20260503013053 9 79 0.0 0.0 0.00 0.00 0.00 88 1010.0
20260503011557 9 79 0.0 0.0 0.00 0.00 0.00 88 1009.9
20260503010052 9 80 0.0 0.0 0.00 0.00 0.00 88 1009.9
20260503004552 9 80 0.0 0.0 0.00 0.00 0.00 88 1009.9
20260503003051 10 80 0.0 0.0 0.00 0.00 0.00 87 1009.7
20260503001601 10 80 0.0 0.0 0.00 0.00 0.00 87 1009.7
20260503000050 10 80 0.0 0.0 0.00 0.00 0.00 86 1009.7
20260502234552 10 80 0.0 0.0 0.00 0.00 0.00 85 1009.7
20260502233053 10 80 0.0 0.0 0.00 0.00 0.00 85 1009.8
20260502231548 10 80 0.0 0.0 0.00 0.00 0.00 84 1009.8
20260502230047 10 80 0.0 1.6 0.00 0.00 0.00 84 1009.9
20260502224547 10 26 0.0 3.2 0.00 0.00 0.00 84 1009.9
20260502223046 10 26 0.0 3.2 0.00 0.00 0.00 84 1009.7
20260502221545 10 103 0.0 3.2 0.00 0.00 0.00 82 1009.6
20260502220045 11 103 0.0 1.6 0.00 0.00 0.00 82 1009.6
20260502214544 11 105 0.0 1.6 0.00 0.00 0.00 82 1009.6
20260502213043 11 105 0.0 3.2 0.00 0.00 0.00 81 1009.7
20260502211544 11 106 0.0 4.8 0.00 0.00 0.00 80 1009.7